N8SDR Weather Reports


time (UTC)temp
C
wind
direction
speed
KPH
gust
KPH
rain 1hr
cm
rain 24hr
cm
rain mn
cm
humidity
%
barometer
mb
20260505041416 21 214 6.4 14.5 0.00 0.00 0.00 62 1002.7
20260505040913 21 315 8.0 11.3 0.00 0.00 0.00 62 1002.7
20260505040411 21 224 4.8 12.9 0.00 0.00 0.00 62 1002.6
20260505035907 21 170 8.0 11.3 0.00 0.00 0.00 62 1002.6
20260505035403 21 195 3.2 9.7 0.00 0.00 0.00 62 1002.7
20260505034901 21 217 3.2 12.9 0.00 0.00 0.00 62 1002.8
20260505034357 21 238 8.0 20.9 0.00 0.00 0.00 61 1002.8
20260505033854 21 194 6.4 11.3 0.00 0.00 0.00 62 1002.8
20260505033351 21 180 4.8 11.3 0.00 0.00 0.00 62 1002.9
20260505032850 21 191 3.2 9.7 0.00 0.00 0.00 63 1002.9
20260505032346 21 215 8.0 11.3 0.00 0.00 0.00 62 1002.9
20260505031843 21 209 1.6 3.2 0.00 0.00 0.00 63 1002.7
20260505031339 21 206 8.0 14.5 0.00 0.00 0.00 61 1002.9
20260505030837 21 201 0.0 9.7 0.00 0.00 0.00 62 1002.8
20260505030332 21 222 6.4 12.9 0.00 0.00 0.00 62 1002.7
20260505025828 21 171 4.8 12.9 0.00 0.00 0.00 63 1002.9
20260505025326 20 189 1.6 3.2 0.00 0.00 0.00 64 1002.7
20260505024824 20 194 6.4 9.7 0.00 0.00 0.00 65 1002.5
20260505024322 20 178 1.6 4.8 0.00 0.00 0.00 65 1002.6
20260505023819 20 202 3.2 4.8 0.00 0.00 0.00 65 1002.7
20260505023315 20 237 1.6 4.8 0.00 0.00 0.00 65 1002.5
20260505022813 20 165 3.2 4.8 0.00 0.00 0.00 65 1002.4
20260505022310 20 144 3.2 8.0 0.00 0.00 0.00 65 1002.3
20260505021807 20 197 1.6 4.8 0.00 0.00 0.00 65 1002.2
20260505021303 20 187 3.2 4.8 0.00 0.00 0.00 65 1002.1
20260505020759 20 165 3.2 4.8 0.00 0.00 0.00 65 1002.3
20260505020254 20 184 1.6 3.2 0.00 0.00 0.00 65 1001.7
20260505015752 20 193 4.8 4.8 0.00 0.00 0.00 65 1001.6
20260505015249 20 167 4.8 9.7 0.00 0.00 0.00 64 1001.5
20260505014746 21 123 1.6 4.8 0.00 0.00 0.00 64 1001.7
20260505014243 21 183 3.2 4.8 0.00 0.00 0.00 63 1001.5
20260505013739 21 185 4.8 4.8 0.00 0.00 0.00 63 1001.2
20260505013237 21 215 1.6 3.2 0.00 0.00 0.00 62 1001.4
20260505012735 21 185 3.2 3.2 0.00 0.00 0.00 62 1001.7
20260505012232 21 208 3.2 3.2 0.00 0.00 0.00 60 1001.5
20260505011728 21 172 4.8 8.0 0.00 0.00 0.00 61 1001.5
20260505011225 21 193 4.8 8.0 0.00 0.00 0.00 59 1001.4
20260505010721 22 183 6.4 9.7 0.00 0.00 0.00 59 1001.2
20260505010217 22 202 6.4 11.3 0.00 0.00 0.00 59 1001.3
20260505005714 22 165 6.4 14.5 0.00 0.00 0.00 58 1001.1
20260505005211 22 166 6.4 12.9 0.00 0.00 0.00 58 1001.5
20260505004708 22 189 6.4 8.0 0.00 0.00 0.00 58 1001.4
20260505004204 22 168 6.4 8.0 0.00 0.00 0.00 58 1001.4
20260505003702 22 169 4.8 9.7 0.00 0.00 0.00 57 1001.4
20260505003159 22 218 11.3 14.5 0.00 0.00 0.00 56 1001.4
20260505002655 22 251 3.2 9.7 0.00 0.00 0.00 56 1001.3
20260505002153 23 165 1.6 8.0 0.00 0.00 0.00 56 1001.5
20260505001650 23 214 6.4 12.9 0.00 0.00 0.00 54 1001.4
20260505001148 23 185 8.0 12.9 0.00 0.00 0.00 54 1001.6
20260505000644 23 193 8.0 9.7 0.00 0.00 0.00 54 1001.6
20260505000143 23 212 3.2 8.0 0.00 0.00 0.00 53 1001.8
20260504235638 23 214 4.8 16.1 0.00 0.00 0.00 52 1001.8
20260504235135 23 233 8.0 16.1 0.00 0.00 0.00 51 1001.6
20260504234632 23 289 3.2 11.3 0.00 0.00 0.00 51 1002.1
20260504234130 23 203 3.2 4.8 0.00 0.00 0.00 51 1001.8
20260504233625 23 185 4.8 16.1 0.00 0.00 0.00 52 1002.2
20260504233121 23 167 8.0 17.7 0.00 0.00 0.00 51 1002.2
20260504232619 23 205 14.5 22.5 0.00 0.00 0.00 51 1002.1
20260504232116 23 201 0.0 8.0 0.00 0.00 0.00 52 1002.2
20260504231613 24 207 8.0 14.5 0.00 0.00 0.00 51 1002.1
20260504231109 24 107 3.2 25.7 0.00 0.00 0.00 53 1002.1
20260504230605 25 206 4.8 11.3 0.00 0.00 0.00 54 1002.1
20260504230104 24 263 4.8 9.7 0.00 0.00 0.00 54 1002.1
20260504225601 24 127 4.8 14.5 0.00 0.00 0.00 56 1002.1
20260504225058 24 196 1.6 4.8 0.00 0.00 0.00 56 1002.2
20260504224555 23 163 1.6 8.0 0.00 0.00 0.00 56 1002.2
20260504224052 23 174 3.2 8.0 0.00 0.00 0.00 56 1002.4
20260504223549 23 183 3.2 4.8 0.00 0.00 0.00 56 1002.3
20260504223044 23 184 1.6 4.8 0.00 0.00 0.00 56 1002.3
20260504222542 23 194 1.6 8.0 0.00 0.00 0.00 55 1002.5
20260504222039 23 182 3.2 4.8 0.00 0.00 0.00 55 1002.6
20260504221536 23 223 4.8 8.0 0.00 0.00 0.00 54 1002.6
20260504221032 23 229 1.6 8.0 0.00 0.00 0.00 54 1002.7
20260504220529 23 253 3.2 4.8 0.00 0.00 0.00 55 1002.6
20260504220026 23 246 4.8 4.8 0.00 0.00 0.00 54 1002.7
20260504215522 23 275 0.0 3.2 0.00 0.00 0.00 54 1002.8
20260504215020 23 216 0.0 8.0 0.00 0.00 0.00 53 1002.6
20260504214516 23 218 0.0 4.8 0.00 0.00 0.00 54 1002.5
20260504214012 23 195 0.0 12.9 0.00 0.00 0.00 54 1002.5
20260504213509 23 208 0.0 4.8 0.00 0.00 0.00 55 1002.9
20260504213007 23 268 0.0 1.6 0.00 0.00 0.00 56 1003.1
20260504212502 23 313 0.0 4.8 0.00 0.00 0.00 54 1003.3
20260504212000 23 300 0.0 3.2 0.00 0.00 0.00 55 1003.4
20260504211456 23 336 0.0 4.8 0.00 0.00 0.00 54 1003.5
20260504210954 24 191 0.0 3.2 0.00 0.00 0.00 54 1003.4
20260504210450 23 210 0.0 4.8 0.00 0.00 0.00 55 1003.4
20260504205947 23 187 1.6 9.7 0.00 0.00 0.00 53 1003.5
20260504205445 23 290 0.0 8.0 0.00 0.00 0.00 54 1003.6
20260504204943 23 295 0.0 1.6 0.00 0.00 0.00 56 1003.8
20260504204441 23 285 4.8 8.0 0.00 0.00 0.00 55 1003.6
20260504203940 23 222 6.4 12.9 0.00 0.00 0.00 56 1003.8
20260504203437 23 213 6.4 9.7 0.00 0.00 0.00 56 1003.6
20260504202933 23 218 1.6 3.2 0.00 0.00 0.00 56 1004.0
20260504202430 23 128 0.0 12.9 0.00 0.00 0.00 56 1004.1
20260504201926 23 48 8.0 9.7 0.00 0.00 0.00 58 1004.2
20260504201424 22 234 0.0 11.3 0.00 0.00 0.00 59 1004.2
20260504200921 23 185 8.0 12.9 0.00 0.00 0.00 58 1003.9
20260504200418 23 244 0.0 4.8 0.00 0.00 0.00 59 1003.9
20260504195915 23 356 0.0 12.9 0.00 0.00 0.00 60 1004.2
20260504195410 22 208 4.8 16.1 0.00 0.00 0.00 60 1004.2
20260504194907 21 112 1.6 11.3 0.00 0.00 0.00 64 1004.2
20260504194403 21 189 4.8 14.5 0.00 0.00 0.00 64 1004.1
20260504193859 21 200 4.8 12.9 0.00 0.00 0.00 66 1004.1
20260504193356 20 196 6.4 11.3 0.00 0.00 0.00 68 1004.3
20260504192855 20 184 0.0 14.5 0.00 0.00 0.00 69 1004.7
20260504192352 20 232 11.3 12.9 0.00 0.00 0.00 70 1004.6
20260504191850 20 269 0.0 4.8 0.00 0.00 0.00 73 1004.6
20260504191348 19 165 1.6 3.2 0.00 0.00 0.00 73 1004.5
20260504190843 19 163 3.2 8.0 0.00 0.00 0.00 74 1005.0
20260504190339 20 215 4.8 11.3 0.00 0.00 0.00 73 1005.3
20260504185836 19 223 4.8 8.0 0.00 0.00 0.00 72 1004.9
20260504185333 19 180 3.2 4.8 0.00 0.00 0.00 72 1004.8
20260504184829 20 206 6.4 9.7 0.00 0.00 0.00 69 1005.4
20260504184325 20 300 0.0 11.3 0.00 0.00 0.00 67 1005.7
20260504183821 20 267 3.2 11.3 0.00 0.00 0.00 66 1005.2
20260504183319 20 190 11.3 17.7 0.00 0.00 0.00 65 1005.3
20260504182816 20 208 6.4 9.7 0.00 0.00 0.00 65 1005.0
20260504182314 20 239 14.5 20.9 0.00 0.00 0.00 64 1005.0
20260504181810 21 176 4.8 17.7 0.00 0.00 0.00 63 1004.9
20260504181308 21 188 3.2 12.9 0.00 0.00 0.00 63 1004.8
20260504180807 21 231 4.8 14.5 0.00 0.00 0.00 63 1004.5
20260504180305 21 205 11.3 17.7 0.00 0.00 0.00 62 1004.4
20260504175803 22 220 11.3 24.1 0.00 0.00 0.00 62 1004.7
20260504175259 22 300 3.2 22.5 0.00 0.00 0.00 61 1004.3
20260504174757 22 304 0.0 14.5 0.00 0.00 0.00 62 1004.1
20260504174255 21 340 8.0 16.1 0.00 0.00 0.00 63 1004.1
20260504173751 21 220 1.6 12.9 0.00 0.00 0.00 63 1004.1
20260504173248 21 195 8.0 22.5 0.00 0.00 0.00 63 1004.0
20260504172745 21 189 6.4 12.9 0.00 0.00 0.00 64 1004.0
20260504172242 21 190 9.7 14.5 0.00 0.00 0.00 63 1004.4
20260504171737 21 180 3.2 4.8 0.00 0.00 0.00 64 1004.4
20260504171235 21 157 3.2 3.2 0.00 0.00 0.00 64 1004.6
20260504170732 20 182 8.0 9.7 0.00 0.00 0.00 64 1004.2
20260504170229 20 181 4.8 9.7 0.00 0.00 0.00 66 1004.3
20260504160147 18 230 0.0 8.0 0.00 0.00 0.00 67 1005.4
20260504151115 17 202 6.4 11.3 0.00 0.00 0.00 66 1005.5
20260504150612 17 177 4.8 11.3 0.00 0.00 0.00 66 1005.0
20260504150109 18 210 9.7 17.7 0.00 0.00 0.00 66 1005.4
20260504141038 17 193 6.4 8.0 0.00 0.00 0.00 67 1005.4
20260504140535 16 231 3.2 8.0 0.00 0.00 0.00 67 1005.5
20260504130459 14 176 8.0 12.9 0.00 0.00 0.00 72 1005.9
20260504110346 11 162 1.6 1.6 0.00 0.00 0.00 76 1005.7
20260504100303 10 149 0.0 1.6 0.00 0.00 0.00 77 1005.9
20260504081657 12 178 1.6 3.2 0.00 0.00 0.00 67 1006.8
20260504081153 12 160 3.2 3.2 0.00 0.00 0.00 66 1006.6
20260504080649 12 178 3.2 4.8 0.00 0.00 0.00 66 1006.8
20260504080146 12 170 3.2 8.0 0.00 0.00 0.00 66 1006.7
20260504070114 12 190 1.6 3.2 0.00 0.00 0.00 64 1007.1
20260504050502 12 188 3.2 3.2 0.00 0.00 0.00 66 1008.5
20260504045959 12 173 1.6 3.2 0.00 0.00 0.00 66 1008.3
20260504045455 12 186 1.6 4.8 0.00 0.00 0.00 66 1008.4
20260504044951 12 159 3.2 3.2 0.00 0.00 0.00 65 1008.8
20260504044449 12 154 3.2 3.2 0.00 0.00 0.00 66 1008.5
20260504043946 12 201 1.6 3.2 0.00 0.00 0.00 66 1008.5
20260504043443 12 142 3.2 4.8 0.00 0.00 0.00 66 1008.7
20260504042941 12 199 4.8 4.8 0.00 0.00 0.00 66 1008.7
20260504042437 12 156 1.6 3.2 0.00 0.00 0.00 66 1008.7
20260504041934 12 169 3.2 3.2 0.00 0.00 0.00 66 1008.9